Elwood, MO

6:09 PM CST on February 08, 2016 (GMT -0600)
Rosecrans Memorial

Weather History for KSTJ - October, 2014

Change the Weather History Date:

Thursday, October 9, 2014

  Actual Average Record
Temperature  
Mean Temperature 58 °F 57 °F  
Max Temperature 63 °F 70 °F 88 °F (1938)
Min Temperature 53 °F 45 °F 25 °F (1964)
Degree Days  
Heating Degree Days 7 9  
Month to date heating degree days 66 68  
Since 1 July heating degree days 150 148  
Cooling Degree Days 0 1  
Month to date cooling degree days 7 14  
Year to date cooling degree days 1175 1213  
Growing Degree Days 8 (Base 50)    
Moisture  
Dew Point 52 °F    
Average Humidity 76    
Maximum Humidity 100    
Minimum Humidity 52    
Precipitation  
Precipitation 2.30 in 0.09 in 2.30 in (2014)
Month to date precipitation 4.68 0.81  
Year to date precipitation 28.94 30.53  
Sea Level Pressure  
Sea Level Pressure 30.02 in    
Wind  
Wind Speed 9 mph (ENE)    
Max Wind Speed 18 mph    
Max Gust Speed 25 mph    
Visibility 8 miles    
Events Rain , Thunderstorm    
T = Trace of Precipitation, MM = Missing Value Source: NWS Daily Summary

Daily Weather History Graph

Daily Weather History Graph

Search for Another Location

Airport or City:

Trip Planner

Search our weather history database for the weather conditions in past years. The results will help you decide how hot, cold, wet, or windy it might be!

Date:

Astronomy

Oct. 09, 2014 Rise Set
Actual Time 7:23 AM CDT 6:49 PM CDT
Civil Twilight 6:56 AM CDT 7:16 PM CDT
Nautical Twilight 6:25 AM CDT 7:47 PM CDT
Astronomical Twilight 5:54 AM CDT 8:18 PM CDT
Moon 7:46 PM CDT 8:39 AM CDT
Length of Visible Light 12h 19m
Length of Day
11h 25m
Full, 98% of the Moon is Illuminated
Oct 9
Full
Oct 15
Last Quarter
Oct 23
New
Oct 30
First Quarter
Nov 6
Full

Hourly Weather History & Observations

Time (CDT) Temp. Dew Point Humidity Pressure Visibility Wind Dir Wind Speed Gust Speed Precip Events Conditions
12:53 AM 62.1 °F 45.0 °F 53% 29.96 in 10.0 mi East 6.9 mph - N/A   Overcast
1:00 AM 63.0 °F 44.1 °F 50% 29.97 in 10.0 mi ENE 8.1 mph - N/A Thunderstorm Overcast
1:10 AM 62.1 °F 45.0 °F 53% 29.97 in 10.0 mi NE 10.4 mph - N/A Thunderstorm Thunderstorm
1:22 AM 60.1 °F 46.9 °F 62% 29.96 in 10.0 mi ENE 11.5 mph - 0.00 in Rain Light Rain
1:30 AM 59.0 °F 46.9 °F 64% 29.98 in 10.0 mi East 9.2 mph 18.4 mph 0.00 in Rain , Thunderstorm Light Thunderstorms and Rain
1:53 AM 57.0 °F 50.0 °F 77% 29.96 in 10.0 mi East 12.7 mph - 0.02 in Rain , Thunderstorm Light Thunderstorms and Rain
2:07 AM 57.9 °F 50.0 °F 75% 30.00 in 10.0 mi ENE 5.8 mph - 0.00 in   Mostly Cloudy
2:42 AM 57.0 °F 51.1 °F 81% 30.00 in 10.0 mi SSE 5.8 mph - 0.00 in Rain , Thunderstorm Light Rain
2:53 AM 57.0 °F 51.1 °F 81% 29.99 in 10.0 mi Calm Calm - 0.01 in Rain , Thunderstorm Light Thunderstorms and Rain
3:30 AM 55.9 °F 53.1 °F 90% 29.98 in 10.0 mi ESE 11.5 mph - 0.04 in Rain Light Rain
3:49 AM 57.2 °F 53.6 °F 88% 30.01 in 10.0 mi Calm Calm - 0.06 in Rain , Thunderstorm Light Rain
3:53 AM 57.0 °F 53.1 °F 87% 30.00 in 10.0 mi ENE 6.9 mph - 0.07 in Rain , Thunderstorm Light Rain
4:09 AM 55.9 °F 53.1 °F 90% 30.01 in 7.0 mi Variable 4.6 mph - 0.03 in Rain , Thunderstorm Thunderstorms and Rain
4:39 AM 55.0 °F 54.0 °F 96% 30.03 in 3.0 mi NNE 9.2 mph - 0.28 in Rain , Thunderstorm Heavy Thunderstorms and Rain
4:46 AM 55.0 °F 54.0 °F 96% 30.05 in 3.0 mi NNE 10.4 mph - 0.35 in Rain , Thunderstorm Heavy Thunderstorms and Rain
4:53 AM 55.0 °F 53.1 °F 93% 30.01 in 3.0 mi East 13.8 mph - 0.45 in Rain , Thunderstorm Heavy Thunderstorms and Rain
4:57 AM 55.0 °F 53.1 °F 93% 30.01 in 2.5 mi East 13.8 mph - 0.07 in Rain , Thunderstorm Heavy Thunderstorms and Rain
5:14 AM 55.0 °F 53.1 °F 93% 30.01 in 4.0 mi East 10.4 mph 18.4 mph 0.28 in Rain , Thunderstorm Heavy Thunderstorms and Rain
5:33 AM 54.0 °F 53.1 °F 97% 30.01 in 7.0 mi East 10.4 mph - 0.41 in Rain , Thunderstorm Heavy Rain
5:37 AM 54.0 °F 53.1 °F 97% 30.01 in 7.0 mi East 8.1 mph - 0.41 in Rain , Thunderstorm Light Rain
5:43 AM 54.0 °F 53.1 °F 97% 30.01 in 10.0 mi ENE 9.2 mph - 0.41 in Rain , Thunderstorm Light Thunderstorms and Rain
5:53 AM 54.0 °F 53.1 °F 97% 29.98 in 5.0 mi East 17.3 mph 24.2 mph 0.48 in Rain , Thunderstorm Heavy Thunderstorms and Rain
6:26 AM 55.0 °F 53.1 °F 93% 30.00 in 8.0 mi East 9.2 mph - 0.11 in Rain , Thunderstorm Thunderstorms and Rain
6:34 AM 54.0 °F 53.1 °F 97% 30.01 in 2.5 mi Variable 4.6 mph - 0.26 in Rain , Thunderstorm Heavy Rain
6:39 AM 54.0 °F 54.0 °F 100% 30.00 in 1.8 mi East 6.9 mph - 0.42 in Rain , Thunderstorm Heavy Rain
6:41 AM 54.0 °F 54.0 °F 100% 30.01 in 1.8 mi NE 5.8 mph - 0.45 in Rain , Thunderstorm Heavy Thunderstorms and Rain
6:49 AM 53.6 °F 53.6 °F 100% 29.99 in 3.0 mi ESE 10.4 mph - 0.52 in Rain , Thunderstorm Heavy Thunderstorms and Rain
6:53 AM 55.0 °F 53.1 °F 93% 30.01 in 5.0 mi ESE 5.8 mph - 0.52 in Rain , Thunderstorm Light Thunderstorms and Rain
7:01 AM 55.0 °F 53.1 °F 93% 30.01 in 10.0 mi East 6.9 mph - 0.01 in Rain , Thunderstorm Light Rain
7:08 AM 55.0 °F 53.1 °F 93% 30.01 in 10.0 mi East 11.5 mph - 0.01 in Rain Light Rain
7:24 AM 55.0 °F 53.1 °F 93% 30.01 in 6.0 mi East 8.1 mph - 0.05 in Rain , Thunderstorm Rain
7:39 AM 55.0 °F 53.1 °F 93% 30.00 in 10.0 mi ENE 8.1 mph - 0.05 in Rain Light Rain
7:53 AM 55.0 °F 53.1 °F 93% 30.01 in 10.0 mi ENE 6.9 mph - 0.05 in   Overcast
8:00 AM 55.0 °F 53.1 °F 93% 30.01 in 10.0 mi NE 8.1 mph - N/A Thunderstorm Overcast
8:15 AM 54.0 °F 53.1 °F 97% 30.02 in 10.0 mi NE 8.1 mph - 0.01 in Rain Light Rain
8:53 AM 54.0 °F 53.1 °F 97% 30.03 in 10.0 mi ENE 9.2 mph - 0.01 in   Overcast
9:21 AM 54.0 °F 52.0 °F 93% 30.05 in 10.0 mi East 5.8 mph - N/A Thunderstorm Overcast
9:39 AM 53.1 °F 52.0 °F 96% 30.04 in 4.0 mi NE 16.1 mph - 0.08 in Rain , Thunderstorm Thunderstorms and Rain
9:43 AM 53.1 °F 51.1 °F 93% 30.04 in 1.8 mi ENE 15.0 mph - 0.17 in Rain , Thunderstorm Heavy Thunderstorms and Rain
9:49 AM 53.6 °F 51.8 °F 94% 30.04 in 2.0 mi ENE 13.8 mph - 0.17 in Rain Rain
9:53 AM 53.1 °F 52.0 °F 96% 30.04 in 5.0 mi ENE 12.7 mph - 0.18 in Rain Light Rain
10:53 AM 53.1 °F 51.1 °F 93% 30.04 in 10.0 mi ENE 11.5 mph - 0.00 in Rain Light Rain
11:48 AM 53.6 °F 51.8 °F 94% 30.05 in 10.0 mi East 9.2 mph - 0.01 in   Overcast
11:53 AM 54.0 °F 52.0 °F 93% 30.05 in 10.0 mi East 8.1 mph - 0.01 in Rain Light Rain
12:19 PM 54.0 °F 52.0 °F 93% 30.06 in 10.0 mi ENE 6.9 mph - 0.00 in   Overcast
12:32 PM 54.0 °F 52.0 °F 93% 30.05 in 10.0 mi ENE 8.1 mph - 0.00 in   Overcast
12:53 PM 55.0 °F 53.1 °F 93% 30.05 in 10.0 mi ENE 10.4 mph - 0.00 in   Overcast
1:20 PM 55.9 °F 54.0 °F 93% 30.05 in 10.0 mi NE 8.1 mph - N/A   Overcast
1:53 PM 55.9 °F 52.0 °F 87% 30.05 in 10.0 mi ENE 8.1 mph 18.4 mph N/A   Overcast
2:22 PM 57.0 °F 53.1 °F 87% 30.03 in 10.0 mi NE 11.5 mph - N/A   Overcast
2:53 PM 59.0 °F 54.0 °F 83% 30.01 in 10.0 mi NE 11.5 mph - N/A   Overcast
3:53 PM 60.1 °F 54.0 °F 80% 30.01 in 10.0 mi ENE 10.4 mph - N/A   Overcast
4:53 PM 59.0 °F 53.1 °F 81% 30.04 in 10.0 mi ENE 8.1 mph - N/A   Overcast
5:53 PM 57.9 °F 54.0 °F 87% 30.03 in 9.0 mi East 5.8 mph - 0.00 in Rain Light Rain
6:13 PM 57.9 °F 54.0 °F 87% 30.03 in 10.0 mi East 8.1 mph - 0.00 in   Overcast
6:53 PM 57.9 °F 53.1 °F 84% 30.04 in 10.0 mi East 4.6 mph - 0.00 in   Overcast
7:53 PM 57.9 °F 53.1 °F 84% 30.05 in 10.0 mi ENE 8.1 mph - N/A   Overcast
8:53 PM 55.9 °F 53.1 °F 90% 30.08 in 8.0 mi NE 4.6 mph - 0.02 in Rain Light Rain
9:53 PM 55.9 °F 53.1 °F 90% 30.10 in 8.0 mi NE 9.2 mph - 0.09 in Rain Light Rain
10:53 PM 55.0 °F 53.1 °F 93% 30.12 in 3.0 mi NE 9.2 mph - 0.30 in Rain Heavy Rain
11:53 PM 55.0 °F 53.1 °F 93% 30.11 in 10.0 mi NNE 6.9 mph - 0.09 in Rain Light Rain